Time,TemperatureF,DewpointF,PressureIn,WindDirection,WindDirectionDegrees,WindSpeedMPH,WindSpeedGustMPH,Humidity,HourlyPrecipIn,Conditions,Clouds,dailyrainin,SolarRadiationWatts/m^2,SoftwareType,DateUTC
2013-10-21 00:02:00,61.0,34.0,-100.00,SSW,201,1.0,7.0,36,0.00,,,0.00,0.000000,,2013-10-21 07:02:00,
2013-10-21 00:11:00,61.0,34.0,-100.00,SSW,201,1.0,7.0,36,0.00,,,0.00,0.000000,,2013-10-21 07:11:00,
2013-10-21 00:43:00,59.0,33.0,-100.00,SSE,151,2.0,3.0,38,0.00,,,0.00,0.000000,,2013-10-21 07:43:00,
2013-10-21 00:52:00,59.0,33.0,-100.00,SSE,151,2.0,3.0,38,0.00,,,0.00,0.000000,,2013-10-21 07:52:00,
2013-10-21 01:02:00,59.0,33.0,-100.00,SSE,151,2.0,3.0,38,0.00,,,0.00,0.000000,,2013-10-21 08:02:00,
2013-10-21 01:11:00,59.0,33.0,-100.00,SSE,151,2.0,3.0,38,0.00,,,0.00,0.000000,,2013-10-21 08:11:00,
2013-10-21 01:42:00,59.0,31.0,-100.00,NE,55,3.0,4.0,35,0.00,,,0.00,0.000000,,2013-10-21 08:42:00,
2013-10-21 01:52:00,59.0,31.0,-100.00,NE,55,3.0,4.0,35,0.00,,,0.00,0.000000,,2013-10-21 08:52:00,
2013-10-21 02:02:00,59.0,31.0,-100.00,NE,55,3.0,4.0,35,0.00,,,0.00,0.000000,,2013-10-21 09:02:00,
2013-10-21 02:11:00,59.0,31.0,-100.00,NE,55,3.0,4.0,35,0.00,,,0.00,0.000000,,2013-10-21 09:11:00,
2013-10-21 02:43:00,59.0,31.0,-100.00,ENE,67,5.0,6.0,34,0.00,,,0.00,0.000000,,2013-10-21 09:43:00,
2013-10-21 02:53:00,59.0,31.0,-100.00,ENE,67,5.0,6.0,34,0.00,,,0.00,0.000000,,2013-10-21 09:53:00,
2013-10-21 03:03:00,59.0,31.0,-100.00,ENE,67,5.0,6.0,34,0.00,,,0.00,0.000000,,2013-10-21 10:03:00,
2013-10-21 03:12:00,59.0,31.0,-100.00,ENE,67,5.0,6.0,34,0.00,,,0.00,0.000000,,2013-10-21 10:12:00,
2013-10-21 03:43:00,58.0,31.0,-100.00,ENE,64,3.0,7.0,35,0.00,,,-99.99,0.000000,,2013-10-21 10:43:00,
2013-10-21 03:52:00,58.0,31.0,-100.00,ENE,64,3.0,7.0,35,0.00,,,-99.99,0.000000,,2013-10-21 10:52:00,
2013-10-21 04:02:00,58.0,31.0,-100.00,ENE,64,3.0,7.0,35,0.00,,,-99.99,0.000000,,2013-10-21 11:02:00,
2013-10-21 04:12:00,58.0,31.0,-100.00,ENE,64,3.0,7.0,35,0.00,,,-99.99,0.000000,,2013-10-21 11:12:00,
2013-10-21 04:42:00,58.0,31.0,-100.00,East,82,5.0,7.0,35,0.00,,,0.00,0.000000,,2013-10-21 11:42:00,
2013-10-21 04:52:00,58.0,31.0,-100.00,East,82,5.0,7.0,35,0.00,,,0.00,0.000000,,2013-10-21 11:52:00,
2013-10-21 05:01:00,58.0,31.0,-100.00,East,82,5.0,7.0,35,0.00,,,0.00,0.000000,,2013-10-21 12:01:00,
2013-10-21 05:12:00,58.0,31.0,-100.00,East,82,5.0,7.0,35,0.00,,,0.00,0.000000,,2013-10-21 12:12:00,
2013-10-21 05:42:00,57.0,31.0,-100.00,ENE,64,4.0,7.0,37,0.00,,,0.00,0.000000,,2013-10-21 12:42:00,
2013-10-21 05:52:00,57.0,31.0,-100.00,ENE,64,4.0,7.0,37,0.00,,,0.00,0.000000,,2013-10-21 12:52:00,
2013-10-21 06:02:00,57.0,31.0,-100.00,ENE,64,4.0,7.0,37,0.00,,,0.00,0.000000,,2013-10-21 13:02:00,
2013-10-21 06:11:00,57.0,31.0,-100.00,ENE,64,4.0,7.0,37,0.00,,,0.00,0.000000,,2013-10-21 13:11:00,
2013-10-21 06:42:00,57.0,32.0,-100.00,ENE,71,5.0,7.0,38,0.00,,,0.00,0.000000,,2013-10-21 13:42:00,
2013-10-21 06:52:00,57.0,32.0,-100.00,ENE,71,5.0,7.0,38,0.00,,,0.00,0.000000,,2013-10-21 13:52:00,
2013-10-21 07:02:00,57.0,32.0,-100.00,ENE,71,5.0,7.0,38,0.00,,,0.00,0.000000,,2013-10-21 14:02:00,
2013-10-21 07:11:00,57.0,32.0,-100.00,ENE,71,5.0,7.0,38,0.00,,,0.00,0.000000,,2013-10-21 14:11:00,
2013-10-21 07:42:00,56.0,32.0,-100.00,ENE,63,3.0,6.0,40,0.00,,,0.00,1.000000,,2013-10-21 14:42:00,
2013-10-21 07:52:00,56.0,32.0,-100.00,ENE,63,3.0,6.0,40,0.00,,,0.00,1.000000,,2013-10-21 14:52:00,
2013-10-21 08:02:00,56.0,32.0,-100.00,ENE,63,3.0,6.0,40,0.00,,,0.00,1.000000,,2013-10-21 15:02:00,
2013-10-21 08:12:00,56.0,32.0,-100.00,ENE,63,3.0,6.0,40,0.00,,,0.00,1.000000,,2013-10-21 15:12:00,
2013-10-21 08:13:00,58.0,33.0,-100.00,NNE,30,3.0,5.0,39,0.00,,,0.00,21.000000,,2013-10-21 15:13:00,
2013-10-21 08:43:00,58.0,33.0,-100.00,NNE,30,3.0,5.0,39,0.00,,,0.00,21.000000,,2013-10-21 15:43:00,
2013-10-21 08:53:00,58.0,33.0,-100.00,NNE,30,3.0,5.0,39,0.00,,,0.00,21.000000,,2013-10-21 15:53:00,
2013-10-21 09:03:00,58.0,33.0,-100.00,NNE,30,3.0,5.0,39,0.00,,,0.00,21.000000,,2013-10-21 16:03:00,
2013-10-21 09:53:00,71.0,38.0,-100.00,East,93,2.0,4.0,30,0.00,,,0.00,241.000000,,2013-10-21 16:53:00,
2013-10-21 10:02:00,71.0,38.0,-100.00,East,93,2.0,4.0,30,0.00,,,0.00,241.000000,,2013-10-21 17:02:00,
2013-10-21 11:52:00,79.0,36.0,-100.00,SSW,206,5.0,7.0,21,0.00,,,0.00,567.000000,,2013-10-21 18:52:00,
2013-10-21 12:02:00,79.0,36.0,-100.00,SSW,206,5.0,7.0,21,0.00,,,0.00,567.000000,,2013-10-21 19:02:00,
2013-10-21 12:11:00,79.0,36.0,-100.00,SSW,206,5.0,7.0,21,0.00,,,0.00,567.000000,,2013-10-21 19:11:00,
2013-10-21 12:42:00,81.0,36.0,-100.00,WNW,292,4.0,9.0,20,0.00,,,0.00,648.000000,,2013-10-21 19:42:00,
2013-10-21 12:52:00,81.0,36.0,-100.00,WNW,292,4.0,9.0,20,0.00,,,0.00,648.000000,,2013-10-21 19:52:00,
2013-10-21 13:01:00,81.0,36.0,-100.00,WNW,292,4.0,9.0,20,0.00,,,0.00,648.000000,,2013-10-21 20:01:00,
2013-10-21 13:11:00,81.0,36.0,-100.00,WNW,292,4.0,9.0,20,0.00,,,0.00,648.000000,,2013-10-21 20:11:00,
2013-10-21 13:43:00,83.0,34.0,-100.00,WNW,290,4.0,9.0,17,0.00,,,0.00,670.000000,,2013-10-21 20:43:00,
2013-10-21 13:52:00,83.0,34.0,-100.00,WNW,290,4.0,9.0,17,0.00,,,0.00,670.000000,,2013-10-21 20:52:00,
2013-10-21 14:03:00,83.0,34.0,-100.00,WNW,290,4.0,9.0,17,0.00,,,0.00,670.000000,,2013-10-21 21:03:00,
2013-10-21 14:11:00,83.0,34.0,-100.00,WNW,290,4.0,9.0,17,0.00,,,0.00,670.000000,,2013-10-21 21:11:00,
2013-10-21 14:13:00,84.0,34.0,-100.00,NNW,347,5.0,11.0,17,0.00,,,0.00,627.000000,,2013-10-21 21:13:00,
2013-10-21 14:44:00,84.0,34.0,-100.00,NNW,347,5.0,11.0,17,0.00,,,0.00,627.000000,,2013-10-21 21:44:00,
2013-10-21 14:54:00,84.0,34.0,-100.00,NNW,347,5.0,11.0,17,0.00,,,0.00,627.000000,,2013-10-21 21:54:00,
2013-10-21 15:04:00,84.0,34.0,-100.00,NNW,347,5.0,11.0,17,0.00,,,0.00,627.000000,,2013-10-21 22:04:00,
2013-10-21 15:44:00,85.0,34.0,-100.00,West,264,4.0,11.0,16,0.00,,,0.00,502.000000,,2013-10-21 22:44:00,
2013-10-21 15:53:00,85.0,34.0,-100.00,West,264,4.0,11.0,16,0.00,,,0.00,502.000000,,2013-10-21 22:53:00,
2013-10-21 16:03:00,85.0,34.0,-100.00,West,264,4.0,11.0,16,0.00,,,0.00,502.000000,,2013-10-21 23:03:00,
2013-10-21 16:12:00,85.0,34.0,-100.00,West,264,4.0,11.0,16,0.00,,,0.00,502.000000,,2013-10-21 23:12:00,
2013-10-21 16:42:00,83.0,34.0,-100.00,WNW,293,5.0,11.0,17,0.00,,,0.00,346.000000,,2013-10-21 23:42:00,
2013-10-21 16:53:00,83.0,34.0,-100.00,WNW,293,5.0,11.0,17,0.00,,,0.00,346.000000,,2013-10-21 23:53:00,
2013-10-21 17:02:00,83.0,34.0,-100.00,WNW,293,5.0,11.0,17,0.00,,,0.00,346.000000,,2013-10-22 00:02:00,
2013-10-21 17:12:00,83.0,34.0,-100.00,WNW,293,5.0,11.0,17,0.00,,,0.00,346.000000,,2013-10-22 00:12:00,
2013-10-21 17:42:00,81.0,35.0,-100.00,WNW,301,3.0,7.0,19,0.00,,,0.00,96.000000,,2013-10-22 00:42:00,
2013-10-21 17:53:00,81.0,35.0,-100.00,WNW,301,3.0,7.0,19,0.00,,,0.00,96.000000,,2013-10-22 00:53:00,
2013-10-21 18:02:00,81.0,35.0,-100.00,WNW,301,3.0,7.0,19,0.00,,,0.00,96.000000,,2013-10-22 01:02:00,
2013-10-21 18:12:00,81.0,35.0,-100.00,WNW,301,3.0,7.0,19,0.00,,,0.00,96.000000,,2013-10-22 01:12:00,
2013-10-21 18:42:00,76.0,34.0,-100.00,WSW,255,1.0,5.0,22,0.00,,,0.00,50.000000,,2013-10-22 01:42:00,
2013-10-21 18:52:00,76.0,34.0,-100.00,WSW,255,1.0,5.0,22,0.00,,,0.00,50.000000,,2013-10-22 01:52:00,
2013-10-21 19:02:00,76.0,34.0,-100.00,WSW,255,1.0,5.0,22,0.00,,,0.00,50.000000,,2013-10-22 02:02:00,
2013-10-21 19:11:00,76.0,34.0,-100.00,WSW,255,1.0,5.0,22,0.00,,,0.00,50.000000,,2013-10-22 02:11:00,
2013-10-21 19:43:00,66.0,33.0,-100.00,NE,48,4.0,6.0,29,0.00,,,0.00,0.000000,,2013-10-22 02:43:00,
2013-10-21 19:52:00,66.0,33.0,-100.00,NE,48,4.0,6.0,29,0.00,,,0.00,0.000000,,2013-10-22 02:52:00,
2013-10-21 20:03:00,66.0,33.0,-100.00,NE,48,4.0,6.0,29,0.00,,,0.00,0.000000,,2013-10-22 03:03:00,
2013-10-21 20:12:00,66.0,33.0,-100.00,NE,48,4.0,6.0,29,0.00,,,0.00,0.000000,,2013-10-22 03:12:00,
2013-10-21 20:13:00,64.0,34.0,-100.00,NE,41,4.0,7.0,32,0.00,,,0.00,0.000000,,2013-10-22 03:13:00,
2013-10-21 20:45:00,64.0,34.0,-100.00,NE,41,4.0,7.0,32,0.00,,,0.00,0.000000,,2013-10-22 03:45:00,
2013-10-21 20:55:00,64.0,34.0,-100.00,NE,41,4.0,7.0,32,0.00,,,0.00,0.000000,,2013-10-22 03:55:00,
2013-10-21 21:05:00,64.0,34.0,-100.00,NE,41,4.0,7.0,32,0.00,,,0.00,0.000000,,2013-10-22 04:05:00,
2013-10-21 21:13:00,63.0,33.0,-100.00,NNE,28,4.0,7.0,32,0.00,,,0.00,0.000000,,2013-10-22 04:13:00,
2013-10-21 21:43:00,63.0,33.0,-100.00,NNE,28,4.0,7.0,32,0.00,,,0.00,0.000000,,2013-10-22 04:43:00,
2013-10-21 21:55:00,63.0,33.0,-100.00,NNE,28,4.0,7.0,32,0.00,,,0.00,0.000000,,2013-10-22 04:55:00,
2013-10-21 22:04:00,63.0,33.0,-100.00,NNE,28,4.0,7.0,32,0.00,,,0.00,0.000000,,2013-10-22 05:04:00,
2013-10-21 22:43:00,63.0,30.0,-100.00,ENE,64,5.0,7.0,29,0.00,,,0.00,0.000000,,2013-10-22 05:43:00,
2013-10-21 22:52:00,63.0,30.0,-100.00,ENE,64,5.0,7.0,29,0.00,,,0.00,0.000000,,2013-10-22 05:52:00,
2013-10-21 23:02:00,63.0,30.0,-100.00,ENE,64,5.0,7.0,29,0.00,,,0.00,0.000000,,2013-10-22 06:02:00,
2013-10-21 23:12:00,63.0,30.0,-100.00,ENE,64,5.0,7.0,29,0.00,,,0.00,0.000000,,2013-10-22 06:12:00,
2013-10-21 23:43:00,63.0,27.0,-100.00,ENE,62,6.0,10.0,25,0.00,,,0.00,0.000000,,2013-10-22 06:43:00,
2013-10-21 23:53:00,63.0,27.0,-100.00,ENE,62,6.0,10.0,25,0.00,,,0.00,0.000000,,2013-10-22 06:53:00,